Location: Kopernik Observatory
(42.0014°N, 76.0372°W)
Time: 15:39:17
(UTC-04:00)

Daily predictions for brighter satellites

Satellite Brightness Start Highest point End
(mag) Time Altitude Azimuth Time Altitude Azimuth Time Altitude Azimuth
Envisat 3.5 20:16:33 10° SE 20:21:17 41° ENE 20:26:02 10° N
Lacrosse 5 rocket 2.0 20:18:30 10° WNW 20:22:02 46° SW 20:25:42 10° SSE
Cosmos 1939 Rocket 4.1 20:19:21 10° SE 20:22:36 24° ENE 20:25:48 10° NNE
Cosmos 1536 4.0 20:19:42 10° SE 20:22:57 23° E 20:26:12 10° NE
Cosmos 44 3.9 20:29:33 10° NW 20:33:51 50° WSW 20:38:18 10° SSE
Cosmos 1655 Rocket 4.0 20:27:55 10° S 20:34:12 83° E 20:40:34 10° N
Meteor 2-4 Rocket 4.1 20:30:45 10° N 20:36:07 47° ENE 20:41:36 10° SSE
Okean 2 Rocket 3.9 20:33:18 10° SSW 20:37:43 58° W 20:42:13 10° N
CZ-2D R/B 3.4 20:33:55 10° S 20:37:47 80° WSW 20:41:39 10° NNW
ATLAS 2AS CENTAUR R/B 3.3 20:31:54 10° S 20:39:04 46° ESE 20:46:41 10° NE
BREEZE-M DEB (TANK) 2.5 20:41:54 10° SW 20:44:37 65° SE 20:51:43 10° ENE
Meteor 1-13 Rocket 4.3 20:38:48 10° N 20:44:47 79° E 20:50:43 10° SSE
BREEZE-M DEB (TANK) 3.6 20:43:50 10° WNW 20:47:03 62° SSW 20:59:04 11° SE
NOSS 2-3 (E) 3.8 20:45:02 10° SSW 20:49:38 67° ESE 20:54:59 10° NE
Helios 1B rocket 3.4 20:50:48 10° NE 20:54:19 27° E 20:57:36 11° SSE
Resurs 1-3 4.0 20:51:51 10° S 20:56:12 65° WSW 21:00:34 10° NNW
USA 186 2.4 20:53:02 10° S 20:56:21 62° W 20:59:43 10° NNW
Lacrosse 5 1.9 20:53:05 10° SSW 20:58:02 56° SE 21:03:00 10° NE
Cosmos 1420 Rocket 4.4 20:54:21 10° SSW 20:59:28 67° WNW 21:04:40 10° NNE
Cosmos 1850 Rocket 4.0 20:54:24 10° NNW 20:59:45 87° ENE 21:05:02 10° SSE
Atlas Centaur 2 3.9 20:56:46 10° WSW 21:03:53 32° SSW 21:08:53 15° SE
SL-8 R/B 4.4 21:01:55 10° WNW 21:06:33 47° NNE 21:10:16 15° E
SeaSat 1 2.4 21:02:56 10° NNE 21:07:53 74° ESE 21:12:48 10° SSW
ARGOS 4.2 21:08:23 18° ESE 21:11:05 28° ENE 21:15:35 10° N
Cosmos 1607 4.0 21:06:56 10° NNW 21:13:25 81° NE 21:18:18 19° SE
Okean 1 Rocket 2.9 21:13:14 10° S 21:17:32 70° E 21:21:55 10° NNE
Cosmos 220 Rocket 3.9 21:13:33 10° NNW 21:17:52 70° ENE 21:20:29 23° SSE
Cosmos 1300 Rocket 3.7 21:14:12 10° SSW 21:18:29 76° W 21:22:49 10° N
Cosmos 2263 Rocket 2.3 21:13:34 10° NNW 21:19:18 81° WSW 21:23:57 16° SSE
Cosmos 1025 Rocket 3.2 21:16:59 10° N 21:21:10 52° E 21:23:14 27° SE
Cosmos 2278 Rocket 4.3 21:19:45 10° NNE 21:22:02 12° NE 21:24:19 10° ENE
Okean 2 3.7 21:19:17 10° N 21:23:14 45° ENE 21:24:45 31° SE
NOSS 2-3 (C) 4.3 21:18:41 10° SW 21:23:21 67° NW 21:28:52 10° NNE
Cosmos 2322 Rocket 2.9 21:17:50 10° SW 21:23:27 57° WNW 21:29:04 10° NNE
YAOGAN 6 2.5 21:22:13 21° S 21:24:28 86° WSW 21:28:00 10° NNW
Meteor 1-11 Rocket 4.4 21:19:00 10° SSW 21:24:44 59° WNW 21:30:24 10° N
SJ-11-01 4.5 21:21:00 10° S 21:25:34 71° WSW 21:30:15 10° NNW
Cosmos 1844 Rocket 3.9 21:21:15 10° N 21:26:07 28° NE 21:28:30 21° E
GPS 2-05 Rocket1 4.5 21:23:43 10° WSW 21:26:14 19° SSW 21:26:33 19° S
Tiangong 1 1.3 21:23:56 10° W 21:26:36 41° SSW 21:26:47 40° S
Cosmos 1818 4.4 21:29:42 27° ESE 21:29:42 27° ESE 21:34:04 10° NE
Okean 1-7 Rocket 3.6 21:26:17 10° N 21:30:46 64° E 21:32:58 29° SSE
Cosmos 2266 Rocket 4.0 21:25:36 10° S 21:31:37 78° W 21:37:41 10° N
Resurs 01 Rocket 3.8 21:28:43 10° SSW 21:32:22 25° W 21:36:03 10° NW
Spot 1 4.4 21:29:50 21° SSE 21:33:22 82° ENE 21:38:26 10° NNW
SL-16 R/B 3.3 21:30:16 10° SW 21:35:41 46° WNW 21:41:09 10° NNE
Abrixas rocket 3.8 21:33:03 10° NW 21:35:59 29° N 21:37:17 21° NE
USA 238 DEB 4.0 21:29:03 10° NNW 21:36:04 60° NE 21:39:57 28° ESE
USA 238 4.0 21:29:08 10° NNW 21:36:10 60° NE 21:40:03 28° ESE
Cosmos 1515 3.8 21:33:25 10° N 21:37:10 54° E 21:37:54 45° ESE
Terra 3.8 21:38:02 14° ENE 21:38:30 14° ENE 21:40:55 10° NNE
Cosmos 2315 Rocket 3.9 21:32:38 10° N 21:38:56 80° E 21:43:24 21° SSE
Cosmos 1975 3.7 21:40:38 31° ENE 21:40:38 31° ENE 21:43:45 10° NNE
MetOp-B 4.2 21:38:09 31° SE 21:40:34 58° ENE 21:45:49 10° N
Cosmos 2219 Rocket 3.6 21:42:46 20° E 21:42:46 20° E 21:45:30 10° NE
Meteor 1-23 Rocket 4.5 21:36:47 10° NNW 21:42:19 67° W 21:47:03 14° S
Nadezhda 2 Rocket 4.4 21:37:46 10° S 21:43:54 78° E 21:50:10 10° N
Helios 1A 3.4 21:41:23 22° S 21:44:02 61° WSW 21:48:16 10° NNW
Cosmos 2322 3.6 21:41:14 10° SSW 21:46:52 76° ESE 21:52:33 10° NNE
ERS-1 Rocket 2.9 21:46:40 34° SSE 21:48:56 80° ENE 21:53:59 10° NNW
ATLAS 3B R/B 2.5 21:44:11 10° NNW 21:50:57 81° NE 21:53:55 35° SE
USA 245 4.0 21:51:09 43° ESE 21:52:13 52° ENE 21:56:19 10° N
Cosmos 1500 3.1 21:52:07 63° SE 21:52:25 66° E 21:56:16 10° NNE
Meteor 1-29 3.0 21:49:38 10° N 21:53:03 72° WNW 21:54:01 43° SSW
Cosmos 2360 Rocket 2.3 21:50:24 10° SSW 21:56:01 75° WNW 22:01:41 10° NNE
COSMOS 2428 2.8 21:55:47 35° SSE 21:57:48 51° ESE 22:03:20 10° NE
Cosmos 1745 Rocket 4.3 22:01:10 40° ESE 22:02:15 43° E 22:08:00 10° NNE
Cosmos 1844 4.3 21:59:18 10° NNW 22:04:42 42° ENE 22:05:53 38° E
H-2A R/B 2.0 22:08:23 53° ESE 22:09:05 58° ENE 22:13:58 10° N
Cosmos 1892 Rocket 3.4 22:05:42 10° N 22:10:09 79° E 22:10:26 75° SE
Cosmos 2333 Rocket 3.4 22:13:04 25° ENE 22:13:04 25° ENE 22:16:02 10° NE
SAR-Lupe-4 4.3 22:12:33 44° WSW 22:12:52 45° W 22:16:20 10° NNW
NOSS 3-2 (C) 4.5 22:05:42 10° NNW 22:12:54 49° NE 22:16:02 34° E
Cosmos 1238 Rocket 4.0 22:06:30 10° N 22:13:17 87° E 22:15:42 41° S
Cosmos 1437 Rocket 4.3 22:19:12 26° NE 22:19:12 26° NE 22:21:09 10° NNE
Cosmos 2333 4.0 22:16:47 49° S 22:18:14 69° ESE 22:23:50 10° NNE
Cosmos 1302 Rocket 4.0 22:19:34 31° SSW 22:22:11 83° WNW 22:27:29 10° NNE
Cosmos 1544 Rocket 3.5 22:24:22 87° NNW 22:24:22 87° NNW 22:28:46 10° N
Cosmos 1486 Rocket 3.9 22:20:13 10° NNW 22:25:29 81° WSW 22:26:11 66° S
Cosmos 2237 Rocket 3.9 22:30:37 19° ENE 22:30:37 19° ENE 22:32:33 10° NE
Aureole 3 Rocket 4.3 22:19:25 10° N 22:27:50 80° W 22:30:15 42° S
Cosmos 405 4.1 22:28:31 45° NW 22:28:31 45° NW 22:31:29 10° N
ATLAS 2AS CENTAUR R/B 4.0 22:22:38 10° WSW 22:30:08 48° NW 22:37:59 10° NNE
SPOT 5 2.9 22:33:36 65° SW 22:33:59 68° WSW 22:38:38 10° NNW
GP-B 4.4 22:29:56 10° NNE 22:32:33 30° NE 22:32:33 30° NE
BREEZE M DEB (TANK) 3.3 22:28:58 10° WSW 22:33:38 43° WSW 22:33:38 43° WSW
Cosmos 1455 Rocket 3.3 22:37:04 69° NW 22:37:04 69° NW 22:41:11 10° N
CENTAUR R/B 4.1 22:33:04 10° NNW 22:40:02 35° NE 22:43:21 26° E
Cosmos 1066 Rocket 4.4 22:34:52 10° NNW 22:40:13 62° W 22:41:15 52° SW
NOSS 3-4 (A) 3.7 22:41:26 53° E 22:41:26 53° E 22:46:44 10° NE
NOSS 3-4 (C) 3.7 22:41:38 51° E 22:41:38 51° E 22:46:50 10° NE
Lacrosse 5 3.6 22:36:42 10° W 22:41:15 32° NNW 22:45:49 10° NNE
SL-8 R/B 4.3 22:44:30 10° WNW 22:48:14 49° W 22:48:14 49° W
ARGOS 4.1 22:49:54 35° SW 22:51:09 40° W 22:56:11 10° NNW
Atlas Centaur 2 4.4 22:47:42 10° WSW 22:51:30 17° SW 22:51:30 17° SW
Nadezhda 1 Rocket 3.9 22:46:00 10° N 22:52:20 84° W 22:53:09 70° S
Cosmos 1743 4.5 22:56:17 30° NNW 22:56:17 30° NNW 22:58:24 10° N
Landsat 7 4.3 23:01:05 58° NW 23:01:05 58° NW 23:05:05 10° NNW
Meteor 1-21 4.2 22:55:48 10° N 23:01:12 82° NNW 23:01:12 82° NNW
DMSP B5D2-2 4.2 22:57:51 10° N 23:02:48 73° NW 23:02:48 73° NW
Cosmos 1354 Rocket 4.2 22:57:53 10° NNW 23:02:44 67° WNW 23:02:44 67° WNW
Cosmos 2278 Rocket 2.4 23:01:35 10° NNW 23:06:39 62° NNE 23:06:39 62° NNE
Cosmos 1709 Rocket 4.1 23:10:41 65° NE 23:10:41 65° NE 23:16:13 10° NNE
Cosmos 1844 Rocket 3.4 23:04:48 10° NW 23:10:09 45° WSW 23:10:09 45° WSW
SPOT 1/Viking Rocket 4.4 23:10:41 41° W 23:10:43 41° W 23:15:41 10° NNW
Cosmos 2181 Rocket 4.2 23:04:45 10° N 23:10:38 58° ENE 23:10:38 58° ENE
Cosmos 1818 4.4 23:10:06 26° WSW 23:12:51 47° NW 23:18:08 10° NNE
Terra 2.7 23:16:55 47° NW 23:16:55 47° NW 23:20:26 10° NNW
H-2A R/B 3.7 23:23:50 31° N 23:23:50 31° N 23:26:11 10° N
Cosmos 2219 Rocket 2.7 23:24:25 53° WNW 23:24:47 53° WNW 23:30:20 10° NNE
NOSS 3-2 (A) 4.1 23:17:28 10° NW 23:24:56 60° WSW 23:25:38 58° SW
SL-16 R/B 4.0 23:39:45 22° NE 23:39:45 22° NE 23:41:48 10° NE
ATLAS 3B R/B 4.4 23:36:29 10° WNW 23:40:44 18° WSW 23:41:11 18° WSW
H-2A R/B 4.2 23:49:01 16° W 23:49:01 16° W 23:51:59 10° NW
NOSS 0 Rocket 4.5 23:51:55 53° WNW 23:51:59 53° WNW 23:58:06 10° NNE
ATLAS CENTAUR R/B 4.3 23:52:52 10° NNW 23:53:18 13° NNW 23:53:18 13° NNW
